Home   Weather   Hamm   Past weeks

Flag for Germany Past Weather in Hamm, North Rhine-Westphalia, Germany — Yesterday and Last 2 Weeks

48 °F

Drizzle. Fog.

Feels Like: 47 °F
Forecast: 43 / 51 °F
Wind: 3 mph from North

Location: Dortmund / Wickede

Current Time: Oct 25, 2016 at 8:56:47 AM

Latest Report: Oct 25, 2016 at 7:50 AM

Visibility: 1 mi

Pressure: 30.07 "Hg

Humidity: 94%

Dew Point: 46 °F

Location of HammLocation

Past Weather in Hamm — Graph


Hamm Temperature Yesterday

Maximum temperature yesterday: 46 °F (at 2:50 PM)
Minimum temperature yesterday: 39 °F (at 5:20 AM)
Average temperature yesterday: 44 °F

High & Low Weather Summary for the Past Weeks

High66 °F (Oct 16, 3:20 PM)100% (Oct 23, 7:50 AM)30.24 "Hg (Oct 23, 7:50 AM)
Low32 °F (Oct 23, 6:50 AM)40% (Oct 16, 3:20 PM)29.65 "Hg (Oct 15, 5:20 AM)
Average47 °F79%29.99 "Hg
* Reported Oct 10 7:20 AM — Oct 25 7:20 AM, Hamm, Weather by CustomWeather, © 2016

Note: Actual official high and low records may vary slightly from our data, if they occured in-between our weather recording intervals... More about our weather records


Hamm Weather History for the Previous 24 Hours

Scroll right to see more
Time TempWeatherWind HumidityBarometerVisibility
7:20 AM
Tue, Oct 25
48 °FDrizzle. Fog.5 mph94%30.07 "Hg1 mi
6:59 AM48 °FFog.3 mph94%30.07 "Hg0 mi
6:50 AM48 °FFog.3 mph94%30.04 "Hg0 mi
6:20 AM48 °FFog.3 mph94%30.04 "Hg0 mi
5:50 AM48 °FDrizzle. Fog.3 mph94%30.04 "Hg0 mi
5:20 AM48 °FDrizzle. Fog.2 mph94%30.04 "Hg0 mi
9:50 PM
Mon, Oct 24
46 °FFog.2 mph87%29.92 "Hg1 mi
9:20 PM46 °FMostly cloudy.1 mph93%29.92 "Hg5 mi
8:50 PM46 °FFog.3 mph93%29.92 "Hg2 mi
8:20 PM46 °FFog.3 mph93%29.95 "Hg1 mi
7:50 PM46 °FFog.3 mph87%29.95 "Hg1 mi
7:20 PM46 °FFog.7 mph87%29.92 "Hg1 mi
6:50 PM46 °FFog.5 mph87%29.92 "Hg1 mi
6:20 PM46 °FDrizzle. Fog.6 mph87%29.92 "Hg1 mi
5:50 PM46 °FFog.5 mph93%29.92 "Hg1 mi
5:20 PM46 °FDrizzle. Fog.5 mph93%29.92 "Hg1 mi
4:50 PM46 °FFog.5 mph93%29.89 "Hg1 mi
4:20 PM46 °FDrizzle. Fog.6 mph93%29.89 "Hg1 mi
3:50 PM46 °FDrizzle. Fog.6 mph87%29.89 "Hg1 mi
3:20 PM46 °FDrizzle. Fog.6 mph87%29.89 "Hg1 mi
2:50 PM46 °FLight rain. Fog.6 mph87%29.89 "Hg2 mi
2:20 PM45 °FLight rain. Fog.5 mph93%29.89 "Hg2 mi
1:50 PM45 °FLight rain. Fog.6 mph93%29.89 "Hg2 mi
1:20 PM45 °FOvercast.6 mph87%29.89 "Hg4 mi
12:50 PM45 °FOvercast.6 mph87%29.89 "Hg4 mi
12:20 PM45 °FOvercast.7 mph87%29.89 "Hg4 mi
11:50 AM45 °FOvercast.5 mph87%29.89 "Hg4 mi
11:20 AM45 °FOvercast.6 mph87%29.89 "Hg4 mi
10:50 AM45 °FPartly sunny.5 mph87%29.89 "Hg4 mi
10:20 AM43 °FClear.5 mph87%29.92 "Hg4 mi
9:50 AM43 °FClear.5 mph87%29.92 "Hg4 mi
9:20 AM41 °FClear.7 mph93%29.92 "Hg4 mi
8:50 AM41 °FClear.8 mph93%29.92 "Hg4 mi
8:20 AM41 °FScattered clouds.7 mph87%29.89 "Hg5 mi
Weather by CustomWeather, © 2016

See weather overviewHow to use our weather pages